User: anonymous
Location: Owatonna
(44.0840°N, 93.2260°W)
Time: 06:16:14
(UTC-05:00)
Language:

Tiangong 1 - Orbit

View from above orbital plane
View from above orbital plane
View from above satellite
View from above satellite

Ground track
Ground track

The orbit data is extracted from the following two-line orbital elements,

1 37820U 11053A   14244.15522380  .00032478  00000-0  31167-3 0  3451
2 37820 042.7693 214.1097 0004118 147.2889 327.7274 15.65978440167971
Epoch (UTC): 01 September 2014 03:43:31
Eccentricity: 0.0004118
inclination: 42.7693°
perigee height: 367 km
apogee height: 373 km
right ascension of ascending node: 214.1097°
argument of perigee: 147.2889°
revolutions per day: 15.65978440
mean anomaly at epoch: 327.7274°
orbit number at epoch: 16797

The dashed part of the orbit path shows where the satellite is in the earth's shadow,  

DLR